Shanksville, PA (15560)

7:18 AM EDT on September 04, 2015 (GMT -0400)
Indian Lake | | Change Station
CLOSE
Current Station
Personal Weather Station
Location: Central City, PA
Elevation: 2297 ft
Nearby Weather Stations

Elev 2297 ft 40.05 °N, 78.87 °W | Updated 9 seconds ago

Fog
Fog
61.3 °F
Feels Like 61.3 °F
N
0.0
Wind Variable Wind from West
Gusts 0.0 mph

Today
High -- | Low -- °F
--% Chance of Precip.
Yesterday
High -- | Low -- °F
Precip. -- in
6:45 AM 7:42 PM
Waning Gibbous, 60% visible
Pressure 30.10 in
Visibility 1.8 miles
Clouds Clear
Dew Point 61 °F
Humidity 98%
Rainfall 0.00 in
Snow Depth Not available.
UV 0.0 out of 12
Pollen 8.50 out of 12
Air Quality Not available.
Flu Activity Not available.
SPECI KJST 041104Z AUTO 00000KT 1 3/4SM BR CLR 18/17 A3010 RMK AO2 T01830167
Pressure 30.10 in
Visibility 1.8 miles
Clouds Clear
Dew Point 61 °F
Humidity 98%
Rainfall 0.00 in
Snow Depth Not available.
UV 0.0 out of 12
Pollen 8.50 out of 12
Air Quality Not available.
Flu Activity Not available.
SPECI KJST 041104Z AUTO 00000KT 1 3/4SM BR CLR 18/17 A3010 RMK AO2 T01830167

10-Day Weather Forecast

×

Almanac

Astronomy

Sep. 04, 2015 Rise Set
Actual Time
Civil Twilight
Nautical Twilight
Astronomical Twilight
Moon
Length of Visible Light
Length of Day
Tomorrow will be .
, % of the Moon is Illuminated

Today's Extremes

State Highs State Lows

Community

WunderPhotos

Upload Photos

1,852,150 photos uploaded!

WunderBlogs® & News

Nearby

Air Quality

  Air Quality AQ Index Pollutant
Not available.

Snow Depth

Station Depth Elevation

Earthquake Activity

City Distance Mag. Time & Date
Minimum magnitude displayed is 2.5.

Coastal Water Temperatures

Place Temperature

Stations

Nearby Weather Stations

Station Location Temp. Windchill Dew Point Humidity Wind Precip. Elev Updated Type